Torna al catalogo

OSCAR 23 DEB

AttivoPO
NORAD 33395·DEBRIS·🇺🇸 United States

Lanciato Apr 26, 1988 da Vandenberg Space Force Base

Loading…

Prossimi Passaggi (prossime 24 ore)

TLE

AggiornatoSource: Space-Track

Epoca: Sep 14, 2026, 15:39 UTC

1 33395U 88033K   26257.65234797  .00000113  00000-0  20082-3 0  9990
2 33395  90.3355  25.0459 0186987 105.2946 271.4054 13.29844412867744

Traccia OSCAR 23 DEB in tempo reale con AllMySat

Download on the App Store